Wind_Speed
12 6 9 18 21 25 28 32 35 36 37 40 43 46 48 49 50 50 50 52 54 56 57 59 60 60 59 58 59 57 52 46 43 45 45 43 46 44 41 34 30 26 21
10 13 14 7 9 14 16 15 16 16 17 20 27 33 37 40 44 46 48 50 52 53 54 55 57 56 57 57 54 53 49 46 45 44 45 43 40 37 38 32 29 24 22
15 8 12 15 15 9 6 5 8 3 10 10 29 31 27 25 30 34 38 43 48 51 52 50 50 51 52 49 49 50 50 50 50 43 42 42 39 35 30 33 30 29 23
14 15 11 6 11 15 16 17 12 7 23 44 48 34 34 33 34 40 44 46 49 47 45 40 40 38 36 36 39 41 42 44 44 41 41 37 38 34 29 34 32 34 34
9 13 13 11 9 7 13 12 2 16 18 27 36 35 40 40 38 48 47 47 50 48 44 44 41 39 37 36 36 37 38 38 40 40 40 36 40 40 40 38 41 37 35
14 10 9 6 6 1 9 12 12 23 29 31 33 38 39 45 52 50 53 53 56 56 52 49 49 47 44 44 43 43 41 41 41 39 43 38 40 49 47 46 46 42 38
10 9 10 10 10 8 12 15 23 25 34 39 44 48 46 54 54 60 56 54 60 67 62 63 56 55 54 51 55 50 51 52 48 44 43 46 48 50 53 52 52 53 50
18 16 14 12 13 15 16 19 22 33 38 43 50 58 62 62 64 63 63 66 69 68 72 71 68 67 64 65 65 63 60 60 57 57 57 54 55 54 54 55 55 55 54
22 22 20 19 19 19 18 19 23 30 35 44 52 59 64 68 71 72 70 72 76 77 75 72 75 75 72 74 73 72 71 68 67 68 65 64 66 65 63 62 61 63 62
25 26 26 25 27 27 26 27 28 29 33 39 44 48 55 63 68 70 69 71 76 80 83 82 86 90 90 87 84 82 81 78 75 72 73 70 68 67 67 68 71 73 73
29 29 31 32 33 34 35 36 38 38 36 38 41 45 49 50 53 57 65 71 73 76 73 65 59 71 64 69 75 81 81 81 82 82 79 74 76 74 74 74 74 74 77
35 36 36 37 38 39 40 43 46 45 45 47 49 52 52 53 53 54 54 58 63 68 73 80 78 74 76 77 77 82 80 77 82 83 81 82 83 83 79 83 83 81 82
40 41 42 42 43 45 47 51 53 53 54 56 57 58 58 57 54 51 53 53 53 59 63 67 68 74 80 83 85 84 81 80 81 84 85 85 85 85 86 81 82 86 86
45 46 46 45 47 49 52 56 60 61 63 66 67 66 63 59 52 50 47 49 51 53 58 64 68 76 80 81 81 86 86 87 89 88 89 86 87 83 88 81 82 91 93
48 46 48 49 50 54 58 62 64 67 69 73 71 70 67 63 60 57 50 48 48 51 53 59 65 76 90 94 93 92 91 93 91 88 83 86 80 83 81 79 80 81 82
45 46 51 55 57 60 62 67 70 74 76 78 76 71 68 66 62 58 54 52 49 51 54 56 59 67 71 78 91 102 102 99 98 93 89 86 84 85 81 80 81 81 82
53 55 57 59 61 66 71 74 76 78 81 81 77 71 67 64 59 56 54 54 54 54 54 55 57 62 64 70 74 79 84 88 90 86 85 86 83 87 89 88 87 86 90
59 62 64 67 70 72 76 78 80 81 82 81 78 74 68 66 63 59 56 57 56 53 52 55 57 59 61 65 70 73 78 83 95 98 98 95 93 92 90 87 86 88 88
67 69 71 74 78 80 81 80 81 82 81 84 79 77 72 68 66 65 64 56 49 46 45 45 46 49 53 59 64 68 72 77 80 87 95 101 106 110 108 105 101 100 98
73 75 78 81 80 81 80 81 82 80 80 78 78 76 69 65 66 66 63 55 49 47 47 46 47 47 49 50 52 55 61 66 73 80 85 88 92 95 99 104 111 116 117
79 80 82 78 78 79 78 80 81 84 81 82 80 73 70 68 68 65 55 47 46 46 48 47 47 47 48 50 52 56 59 63 67 72 74 76 79 82 87 93 99 102 104
80 82 79 76 75 76 76 80 83 81 83 80 75 72 71 71 65 54 48 47 47 50 50 49 50 50 52 53 55 57 59 61 64 66 69 71 74 76 78 81 83 84 85
81 77 72 71 74 77 76 78 84 85 84 79 75 72 68 60 51 48 49 49 50 50 52 53 54 54 55 57 58 58 59 61 62 60 60 62 65 68 69 70 72 73 75
71 64 65 70 75 74 75 79 85 88 84 79 71 62 54 51 50 50 51 53 54 54 54 57 59 60 61 62 63 63 64 62 60 58 56 57 57 56 56 57 60 62 63
64 63 67 73 77 76 82 86 89 85 76 64 58 57 55 52 51 53 54 57 60 63 65 66 64 63 64 65 64 64 63 60 57 56 55 54 53 52 51 51 51 51 53
63 64 69 74 76 81 83 89 84 75 62 61 58 54 52 52 55 58 61 65 69 71 71 71 70 68 68 67 65 63 59 55 53 50 48 47 46 46 46 46 47 48 49
Wind_Direction
25 358 263 249 250 250 249 249 249 253 260 265 265 267 269 272 273 273 273 275 276 276 276 274 273 274 275 276 277 276 274 273 275 279 282 284 286 288 281 276 274 265 235
13 14 14 6 268 259 261 268 267 271 277 282 285 279 277 277 276 279 279 276 277 278 279 277 277 274 273 275 275 275 273 271 272 277 280 284 284 279 277 268 256 239 231
46 23 360 4 13 24 44 13 59 11 330 336 340 312 285 285 290 295 292 290 284 279 279 280 278 277 277 276 276 271 271 273 274 272 272 283 275 266 259 263 245 231 226
43 54 55 22 23 53 65 88 60 52 329 317 295 296 282 276 277 271 280 285 291 282 278 279 278 276 280 281 281 278 275 275 276 274 272 272 261 253 246 241 228 231 225
354 352 346 359 37 85 122 138 269 234 248 227 242 266 270 261 259 274 277 274 282 279 271 276 280 277 281 286 282 281 282 284 279 274 271 263 253 242 242 244 237 237 241
315 326 320 319 338 340 176 222 217 240 237 230 242 254 263 263 264 268 265 269 272 264 266 272 275 275 278 284 283 281 280 282 280 274 266 257 253 250 256 252 253 246 245
308 311 307 301 284 274 263 271 243 247 248 252 250 250 257 262 266 274 270 262 268 267 271 276 272 273 273 276 277 276 274 278 279 273 272 264 253 250 251 254 256 259 256
326 327 323 311 294 285 271 266 263 250 253 254 253 253 256 260 259 264 272 266 271 272 272 272 269 273 278 277 275 271 272 271 271 272 273 271 268 265 261 259 258 260 261
325 323 319 317 311 304 302 296 278 267 264 257 256 259 262 263 264 265 267 269 267 270 270 270 270 275 278 277 275 275 273 274 272 271 270 270 263 264 265 264 262 264 265
320 318 316 316 314 314 312 307 301 291 276 267 269 270 271 271 270 271 268 267 267 267 267 268 271 271 274 274 273 271 272 269 270 268 268 268 264 264 264 264 266 267 266
315 314 315 315 314 314 315 312 308 304 302 296 294 294 291 287 282 276 269 265 264 263 261 265 260 263 269 270 268 268 269 269 269 268 267 266 265 265 266 265 267 267 264
314 314 314 314 313 313 313 311 310 309 312 310 309 309 307 305 298 290 281 271 266 260 258 255 254 253 255 255 265 269 268 265 266 267 267 265 263 261 263 266 265 268 266
311 312 314 313 312 313 313 313 313 315 316 315 314 317 316 313 307 298 290 281 270 265 259 258 256 253 252 255 258 262 259 262 264 265 265 265 266 271 270 263 259 262 263
309 311 312 311 312 313 315 316 317 319 320 321 321 321 319 316 311 305 294 285 278 270 264 257 248 243 244 248 252 254 258 261 266 268 268 269 270 271 275 271 263 258 260
310 311 311 313 315 316 316 318 319 321 322 322 325 325 323 320 316 311 304 298 286 276 270 263 256 248 245 248 251 256 258 265 267 267 267 269 268 269 267 265 267 267 264
313 313 313 315 317 317 319 321 322 322 323 325 327 326 324 320 315 310 305 301 294 285 277 269 264 261 258 256 255 256 259 260 261 265 265 265 264 267 266 264 264 265 265
314 314 314 316 319 322 322 322 323 324 325 325 326 326 325 321 318 315 309 303 298 291 286 280 273 267 266 263 263 262 261 258 258 261 263 264 266 267 269 267 264 263 266
314 314 315 317 319 321 322 323 324 325 325 324 325 325 324 321 319 316 312 309 304 297 291 284 280 277 272 269 267 266 265 263 259 259 260 261 262 264 265 265 264 265 265
315 316 318 320 321 323 323 324 323 324 324 324 324 322 322 322 322 320 319 316 310 305 301 298 293 286 281 276 274 272 270 268 267 266 264 264 263 262 263 263 263 263 262
316 318 321 321 321 321 322 321 321 322 322 321 322 321 321 322 321 321 319 316 314 312 307 304 300 298 294 290 285 282 279 277 275 272 269 267 266 266 267 267 266 265 264
317 318 319 318 317 319 320 318 320 321 321 322 322 322 322 322 321 319 316 312 311 308 307 305 304 303 300 295 292 288 284 280 278 276 276 275 274 273 271 269 267 267 266
314 315 316 316 315 318 318 318 319 321 323 323 323 322 321 321 320 318 313 312 311 310 310 308 307 306 304 302 299 295 292 290 287 283 280 278 277 276 275 275 275 274 273
312 314 314 314 316 318 320 320 322 323 323 322 323 321 319 320 321 318 315 314 312 312 311 310 309 309 306 304 303 302 299 298 295 291 287 285 283 281 279 278 278 277 276
312 312 311 316 317 319 320 319 321 322 323 323 322 321 323 324 322 318 317 316 315 314 313 313 312 311 308 308 308 307 304 302 301 296 291 289 286 283 281 280 278 277 276
307 308 312 321 321 318 320 320 320 323 324 323 324 324 324 323 323 322 322 319 318 317 315 313 310 310 309 308 309 308 305 305 302 301 301 299 297 295 294 290 286 283 281
304 306 315 322 319 318 321 324 324 324 323 323 324 326 327 328 325 325 325 323 321 319 314 311 310 310 310 311 310 308 307 305 304 303 301 300 299 297 295 294 293 291 290
Height
10949 10948 10948 10950 10953 10955 10959 10963 10968 10973 10978 10979 10980 10978 10977 10975 10973 10970 10967 10965 10962 10960 10958 10957 10957 10956 10954 10952 10950 10947 10946 10945 10944 10938 10938 10937 10934 10930 10929 10928 10929 10929 10930
10950 10948 10946 10947 10948 10950 10953 10958 10962 10965 10965 10968 10966 10966 10964 10963 10962 10961 10957 10953 10951 10947 10945 10943 10941 10940 10939 10938 10935 10934 10933 10934 10934 10932 10925 10926 10923 10921 10919 10920 10919 10921 10923
10953 10950 10948 10949 10948 10951 10954 10956 10958 10959 10963 10963 10954 10952 10949 10950 10950 10949 10946 10942 10938 10934 10932 10927 10926 10926 10924 10923 10921 10921 10919 10919 10919 10920 10918 10914 10912 10911 10911 10911 10910 10912 10912
10951 10951 10951 10950 10951 10953 10955 10955 10957 10951 10942 10949 10953 10944 10943 10938 10936 10934 10934 10929 10925 10923 10920 10917 10915 10914 10914 10911 10910 10908 10906 10905 10904 10905 10906 10905 10904 10904 10902 10901 10902 10901 10901
10949 10949 10945 10945 10948 10949 10949 10948 10945 10943 10931 10947 10929 10929 10926 10923 10926 10922 10922 10917 10914 10910 10909 10906 10905 10904 10903 10901 10898 10898 10897 10895 10893 10893 10894 10893 10895 10894 10893 10893 10892 10891 10893
10946 10945 10942 10940 10940 10943 10946 10942 10939 10938 10934 10929 10920 10916 10909 10908 10912 10911 10911 10905 10899 10896 10896 10893 10891 10891 10891 10890 10889 10888 10887 10886 10884 10882 10881 10881 10882 10883 10883 10883 10881 10881 10883
10943 10940 10937 10937 10935 10935 10936 10937 10935 10928 10922 10916 10909 10904 10900 10903 10904 10899 10896 10891 10886 10884 10884 10882 10879 10877 10877 10877 10876 10875 10873 10871 10871 10870 10870 10868 10867 10868 10869 10869 10867 10868 10868
10936 10934 10933 10932 10930 10929 10929 10929 10928 10925 10920 10915 10909 10904 10899 10896 10893 10889 10884 10880 10872 10870 10869 10865 10863 10862 10861 10861 10857 10857 10857 10855 10855 10854 10853 10855 10854 10853 10853 10854 10853 10850 10852
10930 10928 10926 10924 10922 10921 10920 10919 10919 10917 10915 10912 10907 10900 10894 10886 10879 10876 10871 10864 10859 10854 10852 10849 10844 10842 10843 10839 10835 10835 10835 10836 10834 10834 10832 10836 10834 10834 10835 10835 10835 10833 10834
10923 10921 10917 10915 10912 10910 10909 10908 10906 10904 10902 10899 10895 10887 10878 10870 10860 10853 10850 10844 10839 10835 10831 10829 10824 10822 10818 10814 10810 10808 10810 10811 10810 10810 10810 10814 10813 10815 10815 10815 10814 10814 10814
10916 10913 10909 10906 10902 10898 10895 10893 10890 10886 10883 10878 10872 10865 10857 10848 10838 10829 10824 10819 10815 10811 10809 10804 10804 10794 10794 10784 10779 10780 10783 10784 10785 10786 10786 10790 10792 10792 10793 10793 10792 10793 10792
10907 10903 10900 10896 10892 10888 10884 10880 10875 10870 10865 10858 10849 10840 10830 10822 10812 10803 10797 10792 10787 10784 10779 10775 10772 10769 10767 10761 10759 10756 10758 10756 10755 10758 10761 10761 10763 10766 10765 10767 10768 10768 10768
10898 10894 10891 10886 10881 10876 10871 10865 10858 10852 10845 10836 10828 10819 10810 10799 10789 10779 10771 10767 10763 10757 10754 10750 10749 10746 10743 10740 10736 10735 10733 10732 10731 10732 10733 10735 10736 10735 10738 10738 10739 10741 10741
10889 10885 10880 10876 10870 10865 10858 10851 10842 10833 10825 10815 10806 10795 10784 10775 10767 10759 10752 10744 10739 10735 10731 10726 10724 10722 10719 10716 10714 10712 10713 10710 10708 10706 10707 10708 10707 10706 10707 10710 10710 10710 10712
10877 10874 10868 10864 10859 10851 10844 10836 10827 10816 10806 10796 10786 10775 10763 10753 10743 10736 10729 10722 10717 10712 10707 10704 10700 10698 10696 10692 10690 10689 10687 10685 10685 10683 10681 10683 10683 10682 10682 10682 10682 10682 10683
10869 10863 10856 10850 10844 10838 10829 10819 10810 10799 10788 10775 10767 10757 10745 10734 10723 10714 10707 10701 10696 10689 10684 10681 10677 10673 10672 10670 10667 10665 10664 10663 10661 10659 10657 10658 10657 10656 10655 10656 10657 10658 10657
10856 10851 10843 10838 10832 10821 10809 10801 10792 10781 10768 10756 10749 10739 10728 10715 10703 10695 10688 10681 10673 10665 10660 10657 10653 10650 10647 10643 10641 10639 10638 10637 10635 10634 10634 10633 10631 10628 10627 10628 10629 10630 10629
10845 10836 10828 10821 10814 10806 10796 10786 10774 10764 10750 10738 10727 10719 10711 10698 10686 10678 10670 10660 10650 10644 10638 10632 10629 10626 10623 10620 10617 10614 10612 10611 10609 10607 10606 10605 10604 10602 10600 10600 10600 10599 10598
10828 10820 10813 10805 10795 10784 10774 10765 10756 10748 10735 10718 10707 10696 10688 10677 10666 10655 10646 10641 10634 10625 10619 10613 10608 10605 10601 10599 10595 10591 10588 10585 10582 10578 10574 10573 10573 10572 10570 10569 10568 10568 10569
10812 10804 10794 10785 10776 10767 10758 10748 10739 10731 10721 10708 10695 10682 10673 10662 10650 10641 10630 10621 10614 10609 10603 10598 10594 10589 10584 10578 10574 10569 10563 10558 10553 10548 10544 10541 10539 10538 10535 10532 10530 10531 10531
10793 10787 10780 10770 10761 10751 10742 10731 10721 10711 10702 10690 10677 10665 10653 10645 10636 10625 10616 10610 10605 10599 10592 10586 10580 10574 10568 10562 10556 10548 10541 10535 10530 10524 10519 10514 10509 10504 10500 10497 10495 10493 10493
10782 10771 10763 10754 10744 10737 10727 10716 10705 10695 10682 10671 10658 10646 10635 10625 10618 10609 10601 10597 10592 10585 10577 10571 10566 10561 10553 10544 10535 10527 10520 10513 10505 10498 10491 10486 10481 10476 10472 10466 10462 10460 10458
10768 10756 10746 10739 10731 10722 10713 10699 10687 10676 10667 10653 10643 10631 10620 10611 10603 10596 10588 10582 10577 10571 10563 10555 10548 10542 10533 10524 10516 10508 10499 10489 10480 10473 10468 10461 10455 10448 10444 10439 10434 10429 10426
10753 10745 10735 10729 10720 10709 10701 10691 10677 10662 10648 10634 10624 10614 10605 10599 10592 10583 10577 10569 10561 10555 10547 10539 10531 10524 10512 10503 10493 10483 10473 10464 10456 10449 10444 10438 10432 10427 10422 10417 10410 10405 10401
10736 10730 10723 10714 10703 10694 10682 10670 10658 10644 10632 10619 10610 10603 10595 10587 10579 10572 10564 10556 10547 10537 10528 10519 10512 10505 10493 10483 10474 10463 10453 10444 10435 10427 10419 10412 10406 10400 10395 10390 10386 10381 10377
10724 10718 10709 10701 10691 10680 10667 10654 10640 10628 10617 10608 10600 10591 10584 10576 10567 10559 10552 10541 10531 10520 10509 10498 10489 10483 10471 10461 10452 10443 10435 10425 10418 10411 10404 10397 10391 10384 10378 10372 10366 10361 10356